Temp
78 79 80 81 80 80 80 80 80 79 79 79 79 79 79 79 79 80 80 79 80 80 81 81 81 81 81 81 81 80 80 80 80 81 81 81 80 80 80 81 82 81 79
80 80 80 80 80 80 80 80 79 79 79 79 79 79 79 79 79 79 79 79 80 81 81 81 81 81 81 81 80 80 80 79 80 80 81 81 81 81 80 81 81 80 79
80 79 81 80 80 80 80 79 79 78 79 79 79 79 79 79 79 79 79 80 80 81 81 81 81 81 81 81 80 80 79 79 79 80 81 78 78 81 81 81 81 80 79
81 78 79 80 80 80 80 79 78 78 78 79 79 79 79 79 79 79 79 80 80 81 81 81 81 81 80 80 80 79 79 79 80 80 79 83 84 81 81 81 81 80 80
82 81 79 80 80 80 79 79 78 78 78 79 79 79 79 78 79 79 79 80 80 81 81 81 81 80 80 80 79 79 79 79 80 81 78 80 78 82 80 80 80 80 79
85 80 79 79 79 79 79 79 78 78 78 79 79 78 79 78 78 78 79 80 80 81 81 81 80 79 79 79 78 78 79 79 80 78 78 80 80 80 80 80 80 79 78
84 80 79 79 79 79 79 79 79 78 78 78 79 79 78 78 78 78 79 79 80 80 80 80 79 78 78 78 78 78 79 80 78 77 79 80 78 78 80 79 79 78 78
82 80 80 80 79 79 79 79 78 78 78 78 78 78 78 78 78 78 78 79 80 80 80 79 78 78 78 78 78 78 78 79 80 78 81 80 78 79 80 79 78 78 77
84 80 80 79 79 79 78 78 78 78 78 78 77 77 78 78 78 78 78 78 79 78 78 78 78 77 77 77 78 78 78 79 74 76 83 78 78 79 80 79 78 77 77
84 82 78 78 78 76 77 78 78 78 77 77 77 77 77 78 78 78 77 78 78 78 78 78 77 77 77 77 77 77 78 79 73 76 81 78 78 80 80 79 78 77 77
86 83 81 78 77 77 76 78 78 78 78 77 77 77 76 75 76 77 77 78 78 78 77 77 77 77 77 77 77 77 78 73 72 77 76 78 78 80 79 78 78 77 77
86 82 81 80 79 80 83 77 75 78 76 75 75 75 74 73 74 78 77 78 78 77 77 77 77 76 77 71 72 77 72 73 74 78 76 78 78 80 79 78 78 77 77
85 84 79 83 81 77 84 76 76 76 75 75 75 74 73 76 75 77 76 77 75 77 74 75 74 73 71 71 72 71 72 72 74 78 78 78 78 80 79 78 78 77 77
82 81 84 84 83 82 80 78 78 78 76 75 76 75 74 73 72 75 76 75 73 74 72 71 71 70 70 73 73 74 75 76 75 76 77 78 77 79 79 78 78 77 77
76 78 80 82 81 80 78 81 79 80 78 78 77 77 76 75 71 75 73 75 75 75 73 72 72 73 73 74 77 78 80 79 78 78 78 78 77 78 79 79 78 78 77
76 76 76 78 79 80 77 77 75 81 79 79 79 79 78 77 75 75 75 77 76 77 76 75 75 74 74 75 76 78 80 80 80 78 76 76 76 76 77 78 79 78 78
77 75 77 75 78 78 78 77 75 76 78 82 81 80 80 79 78 76 78 76 79 79 78 76 76 74 75 75 74 77 77 78 78 77 76 75 76 76 76 77 78 78 78
75 77 77 84 76 73 75 76 78 74 74 75 80 81 80 80 80 80 78 80 76 80 78 78 76 73 76 75 72 73 76 76 77 77 76 76 73 76 76 76 77 77 78
76 76 75 76 76 74 74 73 73 76 74 76 75 74 81 81 81 80 79 79 79 76 76 75 73 72 70 71 72 72 74 77 77 80 78 74 73 73 73 75 75 75 75
75 74 74 73 72 71 69 69 69 70 74 77 78 75 76 74 78 81 80 76 78 74 73 72 73 71 71 71 77 75 73 74 73 72 72 73 73 72 71 71 70 71 74
73 71 71 72 71 70 69 68 67 67 69 74 81 78 75 76 75 74 78 78 75 78 74 74 72 70 69 70 68 67 69 72 71 72 72 72 72 72 71 71 68 69 70
69 69 70 71 70 69 67 66 67 67 68 73 79 76 79 74 76 76 74 75 73 72 72 73 74 68 73 69 66 66 64 67 70 71 70 71 72 70 70 71 68 66 64
69 69 69 68 69 69 69 67 67 66 66 68 76 71 74 76 75 73 72 72 71 70 70 72 75 75 72 69 69 67 62 61 65 67 67 68 68 66 65 69 69 67 64
70 71 69 69 68 69 68 66 64 62 64 69 72 75 71 73 71 72 72 71 69 66 69 74 75 72 72 70 66 75 69 67 63 61 65 65 66 67 66 67 67 66 65
71 68 68 68 67 68 68 66 64 64 69 70 72 72 75 71 74 75 72 73 72 72 71 72 69 71 71 71 73 67 67 67 66 61 58 60 62 64 63 63 62 64 64
69 68 68 67 67 67 67 66 64 63 64 65 68 66 68 65 67 69 70 71 73 71 70 70 70 69 69 68 69 67 67 67 64 63 60 60 59 62 60 61 62 63 62
MSLP
1006.75 1006.54 1006.78 1007.21 1007.46 1007.87 1008.47 1008.99 1009.45 1009.72 1010.16 1010.56 1010.72 1010.91 1011.20 1011.46 1011.67 1011.73 1012.09 1012.39 1012.80 1013.11 1013.38 1013.61 1013.84 1014.04 1014.21 1014.35 1014.43 1014.50 1014.52 1014.51 1014.67 1014.85 1014.80 1014.78 1014.96 1015.13 1015.32 1015.39 1015.43 1015.76 1015.89
1006.06 1006.57 1006.67 1007.20 1007.63 1008.07 1008.58 1009.11 1009.62 1010.04 1010.33 1010.63 1010.96 1011.21 1011.46 1011.67 1011.94 1012.20 1012.41 1012.69 1012.95 1013.34 1013.65 1013.88 1014.04 1014.19 1014.28 1014.41 1014.49 1014.53 1014.55 1014.67 1014.81 1014.84 1014.94 1015.11 1015.20 1015.29 1015.36 1015.53 1015.67 1015.85 1015.97
1006.08 1006.66 1006.95 1007.24 1007.63 1008.06 1008.67 1009.26 1009.68 1010.11 1010.49 1010.78 1011.08 1011.40 1011.72 1011.96 1012.25 1012.53 1012.75 1013.06 1013.21 1013.44 1013.71 1013.98 1014.09 1014.22 1014.35 1014.46 1014.59 1014.60 1014.64 1014.91 1015.09 1015.22 1015.19 1015.33 1015.51 1015.50 1015.42 1015.54 1015.82 1015.98 1016.10
1005.97 1006.66 1007.09 1007.56 1007.71 1008.13 1008.69 1009.23 1009.78 1010.24 1010.71 1011.05 1011.32 1011.66 1011.90 1012.16 1012.43 1012.72 1012.96 1013.14 1013.36 1013.61 1013.90 1014.12 1014.22 1014.31 1014.50 1014.57 1014.68 1014.70 1014.77 1015.15 1015.22 1015.29 1015.42 1015.29 1015.31 1015.62 1015.68 1015.58 1015.84 1015.99 1016.11
1006.24 1006.69 1007.25 1007.70 1008.10 1008.33 1008.81 1009.28 1009.71 1010.12 1010.68 1011.05 1011.40 1011.80 1012.15 1012.47 1012.73 1012.98 1013.18 1013.37 1013.56 1013.74 1014.00 1014.18 1014.42 1014.44 1014.63 1014.74 1014.78 1014.79 1014.90 1015.10 1015.36 1015.50 1015.60 1015.53 1015.49 1015.68 1015.79 1015.65 1015.89 1015.91 1016.10
1006.32 1006.76 1007.36 1007.68 1008.19 1008.60 1009.00 1009.32 1009.70 1010.08 1010.58 1011.07 1011.42 1011.81 1012.09 1012.35 1012.73 1013.02 1013.21 1013.43 1013.66 1013.84 1014.06 1014.28 1014.51 1014.63 1014.69 1014.81 1014.92 1014.85 1014.96 1015.06 1015.29 1015.51 1015.44 1015.20 1015.20 1015.60 1015.67 1015.58 1015.79 1016.00 1016.08
1006.30 1006.84 1007.36 1007.82 1008.17 1008.59 1008.92 1009.32 1009.72 1010.09 1010.48 1010.99 1011.39 1011.78 1012.13 1012.45 1012.67 1012.90 1013.15 1013.43 1013.61 1013.82 1014.06 1014.23 1014.38 1014.60 1014.73 1014.81 1014.93 1014.96 1014.94 1015.08 1015.42 1015.41 1015.20 1015.19 1015.40 1015.63 1015.45 1015.65 1015.80 1015.99 1016.17
1005.78 1006.58 1007.13 1007.74 1008.24 1008.65 1008.98 1009.37 1009.71 1010.02 1010.48 1010.94 1011.36 1011.73 1012.09 1012.40 1012.64 1012.89 1013.16 1013.41 1013.60 1013.80 1013.95 1014.16 1014.33 1014.43 1014.68 1014.80 1014.86 1014.90 1014.82 1014.91 1015.19 1015.30 1015.03 1015.21 1015.52 1015.59 1015.53 1015.70 1015.82 1016.11 1016.36
1005.42 1006.16 1006.69 1007.29 1008.05 1008.69 1008.98 1009.32 1009.77 1010.03 1010.50 1010.98 1011.41 1011.75 1012.07 1012.40 1012.62 1012.73 1012.94 1013.17 1013.45 1013.64 1013.88 1014.05 1014.15 1014.25 1014.52 1014.63 1014.76 1014.83 1014.82 1014.83 1015.12 1015.33 1015.19 1015.36 1015.68 1015.65 1015.63 1015.81 1015.83 1016.15 1016.40
1005.14 1005.63 1006.48 1006.97 1007.40 1008.20 1008.82 1009.15 1009.57 1009.95 1010.34 1010.82 1011.30 1011.59 1011.88 1012.26 1012.51 1012.73 1012.93 1013.12 1013.30 1013.51 1013.69 1013.83 1013.99 1014.09 1014.31 1014.45 1014.59 1014.66 1014.67 1014.60 1014.86 1015.24 1014.94 1015.26 1015.56 1015.52 1015.58 1015.83 1015.78 1016.16 1016.43
1005.09 1005.20 1005.91 1006.59 1007.08 1007.38 1008.38 1009.20 1009.66 1009.78 1010.17 1010.72 1011.16 1011.47 1011.87 1012.15 1012.40 1012.63 1012.74 1012.91 1013.15 1013.35 1013.51 1013.63 1013.74 1013.89 1014.10 1014.23 1014.37 1014.42 1014.35 1014.28 1014.61 1014.60 1014.45 1014.81 1015.25 1015.35 1015.42 1015.67 1015.65 1016.03 1016.35
1005.55 1006.14 1006.38 1007.00 1007.60 1007.84 1007.89 1008.60 1009.36 1009.87 1010.36 1010.73 1010.93 1011.35 1011.70 1011.97 1012.20 1012.28 1012.40 1012.60 1012.84 1013.02 1013.19 1013.37 1013.50 1013.64 1013.76 1014.02 1014.12 1014.06 1014.02 1013.75 1014.17 1014.34 1014.52 1014.75 1015.02 1015.10 1015.12 1015.29 1015.53 1015.99 1016.27
1004.95 1005.36 1006.00 1006.23 1007.03 1007.38 1007.82 1008.54 1008.95 1009.56 1010.20 1010.58 1010.93 1011.19 1011.51 1011.67 1011.90 1011.98 1012.14 1012.29 1012.57 1012.73 1012.95 1013.07 1013.18 1013.30 1013.49 1013.68 1013.74 1013.79 1013.66 1013.51 1013.67 1013.91 1014.16 1014.57 1014.82 1014.81 1014.81 1015.03 1015.27 1015.86 1016.22
1005.62 1005.93 1005.73 1006.09 1006.73 1007.01 1007.38 1008.21 1008.22 1008.68 1009.20 1009.74 1010.09 1010.60 1011.05 1011.49 1011.52 1011.63 1011.73 1011.93 1012.23 1012.35 1012.64 1012.80 1013.03 1013.10 1013.19 1013.21 1013.26 1013.23 1013.03 1012.86 1013.17 1013.25 1013.63 1014.03 1014.62 1014.48 1014.43 1014.82 1015.04 1015.44 1015.96
1005.79 1005.53 1005.66 1005.84 1006.31 1006.68 1007.38 1007.87 1008.20 1008.43 1008.74 1008.87 1009.35 1009.69 1010.19 1010.71 1011.05 1010.94 1011.30 1011.47 1011.74 1011.86 1012.07 1012.39 1012.49 1012.63 1012.69 1012.58 1012.55 1012.45 1012.27 1012.27 1012.63 1012.63 1013.13 1013.64 1013.88 1014.08 1014.03 1014.54 1014.83 1015.14 1015.62
1005.71 1005.65 1005.83 1005.88 1006.15 1006.65 1007.18 1007.65 1008.13 1008.15 1008.23 1008.61 1008.65 1008.75 1008.92 1009.32 1009.82 1010.15 1010.28 1010.60 1010.92 1011.10 1011.37 1011.53 1011.83 1012.08 1012.11 1012.05 1012.12 1012.02 1011.91 1011.69 1011.99 1012.22 1012.87 1013.30 1013.23 1013.50 1013.62 1014.28 1014.79 1015.06 1015.30
1005.46 1005.47 1005.71 1005.77 1005.84 1006.16 1006.61 1007.14 1008.00 1007.65 1007.97 1008.14 1007.98 1007.75 1007.66 1008.01 1008.34 1008.67 1009.01 1009.40 1009.63 1009.95 1010.34 1010.81 1011.15 1011.48 1011.78 1011.67 1011.50 1011.24 1011.40 1011.24 1011.63 1012.13 1012.57 1012.65 1012.80 1012.96 1013.31 1013.76 1014.63 1014.81 1015.09
1005.45 1005.48 1005.53 1005.61 1005.99 1006.26 1006.66 1006.91 1007.08 1007.56 1007.54 1007.94 1007.68 1007.73 1007.45 1007.39 1007.66 1008.06 1008.04 1008.02 1008.43 1008.95 1009.77 1010.33 1010.68 1011.09 1011.17 1011.31 1011.30 1011.01 1010.97 1011.00 1011.45 1011.42 1011.83 1012.12 1012.66 1012.85 1012.77 1012.93 1013.73 1014.37 1014.72
1005.09 1005.47 1005.65 1005.66 1005.88 1006.19 1006.27 1006.61 1006.96 1007.06 1007.25 1006.97 1007.26 1007.29 1007.55 1007.29 1006.69 1007.02 1007.63 1007.51 1007.40 1008.25 1009.00 1009.55 1009.93 1010.24 1010.82 1010.93 1010.99 1010.91 1010.86 1010.90 1010.95 1011.02 1011.43 1011.91 1012.28 1012.89 1013.38 1013.37 1013.42 1014.07 1014.33
1004.48 1004.92 1005.23 1005.47 1005.72 1006.03 1006.41 1006.63 1006.76 1006.83 1006.84 1006.73 1006.28 1006.19 1006.49 1007.01 1006.98 1006.00 1006.22 1006.86 1006.72 1007.28 1008.02 1008.77 1009.15 1009.47 1009.78 1010.08 1010.18 1010.77 1010.70 1010.64 1010.85 1011.15 1011.43 1011.44 1012.03 1012.39 1012.88 1013.29 1013.61 1014.15 1014.10
1004.69 1005.13 1005.58 1006.06 1006.24 1006.36 1006.81 1007.11 1007.16 1007.17 1007.01 1006.52 1006.09 1005.56 1005.88 1006.50 1007.18 1006.62 1005.16 1006.01 1005.81 1006.31 1007.08 1007.69 1008.45 1009.21 1009.54 1009.60 1010.18 1010.58 1010.87 1010.70 1010.96 1010.81 1011.08 1011.27 1011.50 1011.96 1012.61 1012.96 1013.07 1013.94 1014.43
1005.68 1005.88 1006.17 1006.42 1006.44 1006.66 1007.06 1007.21 1007.27 1007.35 1006.92 1006.52 1006.01 1005.43 1005.06 1005.35 1005.60 1005.69 1006.06 1006.27 1006.24 1006.76 1007.52 1006.95 1007.56 1008.53 1009.04 1009.17 1009.85 1010.31 1011.02 1011.28 1010.96 1010.84 1011.05 1011.33 1011.66 1011.68 1012.46 1012.74 1013.31 1013.81 1014.72
1006.17 1006.29 1006.55 1006.81 1006.99 1007.14 1007.30 1007.37 1007.36 1007.15 1006.97 1006.58 1005.93 1005.37 1004.48 1004.40 1005.05 1004.99 1005.64 1006.55 1007.75 1006.51 1007.34 1007.31 1006.44 1007.41 1008.57 1008.92 1008.58 1009.28 1010.36 1010.60 1011.02 1011.05 1011.17 1011.40 1011.87 1012.15 1012.60 1012.90 1013.47 1013.71 1014.35
1006.32 1006.35 1006.63 1006.87 1006.96 1007.07 1007.22 1007.66 1007.79 1007.79 1007.55 1006.79 1006.07 1005.31 1005.09 1004.43 1005.94 1006.27 1005.55 1006.66 1006.57 1006.36 1006.88 1006.56 1005.73 1006.86 1008.41 1008.68 1008.47 1008.33 1008.61 1009.11 1010.41 1011.28 1011.45 1011.53 1011.77 1012.27 1012.79 1013.24 1013.32 1013.42 1013.82
1006.41 1006.81 1007.09 1007.31 1007.41 1007.35 1007.33 1007.47 1007.74 1007.78 1007.46 1006.60 1005.89 1005.36 1004.86 1004.85 1004.44 1004.49 1004.79 1005.24 1006.28 1005.98 1005.71 1005.56 1005.22 1006.05 1007.43 1007.87 1008.17 1008.26 1008.39 1008.66 1008.80 1010.20 1011.43 1011.98 1012.12 1012.49 1012.70 1013.28 1013.43 1013.39 1013.92
1006.62 1006.97 1007.09 1007.29 1007.41 1007.26 1007.22 1007.16 1007.28 1007.40 1007.28 1006.83 1006.08 1005.50 1005.08 1005.05 1005.02 1005.29 1005.76 1005.57 1004.71 1004.03 1004.47 1003.63 1005.73 1004.83 1005.79 1006.74 1007.43 1008.13 1008.25 1008.37 1008.70 1009.17 1010.64 1011.73 1012.34 1012.91 1013.05 1013.32 1013.50 1013.59 1013.71
Wind_Speed
5 11 16 16 17 17 16 16 15 16 14 13 15 15 14 15 15 17 17 16 14 12 11 12 11 11 11 12 12 11 12 13 13 13 14 14 14 12 8 8 10 8 7
15 10 17 17 17 17 16 16 15 14 14 14 14 14 14 14 14 14 15 14 14 11 10 10 10 10 10 10 11 10 10 9 9 10 12 11 11 10 9 9 10 6 6
15 11 13 17 18 18 17 15 16 15 14 14 15 14 13 13 14 13 13 13 12 12 12 11 10 9 9 9 8 8 6 7 7 7 8 4 4 7 8 9 7 6 5
15 9 11 14 17 18 17 17 16 15 13 13 13 13 13 13 13 12 12 12 12 12 11 10 9 9 8 8 7 5 4 5 5 3 2 3 5 6 5 8 5 4 5
13 11 11 14 14 16 17 17 17 16 15 14 14 13 12 11 11 11 11 11 11 12 11 10 8 8 7 7 5 4 2 2 1 1 4 6 3 6 5 7 4 4 5
13 12 13 14 14 14 15 16 17 17 16 15 15 14 14 14 12 10 11 10 10 10 10 9 8 7 7 6 4 4 2 1 2 4 5 2 6 9 8 8 8 8 7
13 12 12 14 13 15 16 16 16 16 16 15 15 14 14 13 13 12 10 10 10 10 10 9 8 7 6 6 5 4 3 3 2 4 6 5 6 10 10 10 11 10 9
17 13 13 15 13 13 15 15 16 16 16 15 15 14 14 14 14 12 11 10 10 10 10 9 8 8 7 6 5 5 5 3 3 5 5 5 6 9 12 11 11 10 9
16 14 13 13 14 13 13 14 14 15 14 13 13 13 13 13 13 13 12 11 11 11 10 9 9 8 7 7 6 6 7 7 2 2 3 3 9 10 12 11 12 11 9
16 15 13 12 13 12 9 15 16 15 15 15 14 13 13 13 13 13 12 11 11 11 11 10 9 9 8 8 7 7 8 9 4 4 5 6 11 12 13 11 13 11 9
12 16 15 14 13 14 11 10 12 16 16 14 13 14 11 6 9 11 11 12 12 12 11 11 10 9 9 9 9 9 9 4 3 4 3 16 13 14 13 12 13 11 9
10 9 10 10 9 9 10 11 8 8 6 6 8 9 7 6 7 10 11 15 14 14 12 11 11 10 9 4 4 10 4 7 4 4 3 15 14 15 15 14 13 10 9
4 11 13 15 12 10 9 8 6 5 5 5 7 7 6 7 7 7 6 7 7 12 5 7 7 5 6 5 5 5 6 7 2 4 8 14 15 16 16 14 13 11 9
7 6 11 13 12 10 5 8 9 9 8 7 9 10 8 4 5 7 6 7 7 6 6 6 4 5 6 8 7 7 9 8 4 4 10 18 15 15 16 14 14 13 10
3 4 6 8 8 6 6 6 6 7 8 10 10 11 9 8 5 6 5 7 7 7 8 6 7 8 8 9 9 10 10 10 7 6 6 19 17 15 16 15 14 14 12
3 4 5 7 5 4 6 5 3 7 8 8 9 11 15 11 9 7 8 9 9 9 8 8 9 8 8 8 9 9 9 7 8 9 7 11 17 16 15 13 12 12 11
4 2 4 8 5 5 4 5 5 3 3 9 10 15 17 14 14 10 10 9 10 11 12 9 8 6 8 6 7 7 6 4 9 11 9 7 10 14 13 13 11 11 11
6 3 6 2 6 3 2 3 3 5 5 7 5 9 16 16 15 14 9 11 7 10 9 9 8 7 9 8 5 5 5 4 7 10 8 7 5 5 11 15 12 11 9
7 6 4 4 7 7 5 4 1 4 3 6 8 4 9 16 17 14 10 10 10 7 8 9 7 5 6 5 5 4 5 5 7 8 8 7 7 5 3 9 11 9 7
8 8 7 6 5 1 2 2 1 2 4 6 6 9 11 6 16 15 10 8 10 5 5 5 6 4 5 5 4 3 4 4 4 4 5 6 6 6 6 6 5 5 12
4 9 8 8 3 3 3 3 3 3 4 5 10 9 10 15 17 14 6 11 8 10 8 9 5 7 4 5 3 2 1 5 5 4 5 5 5 7 8 7 6 4 5
8 9 9 5 1 1 1 2 2 3 5 6 9 11 13 11 18 13 7 4 8 4 5 8 9 3 6 6 5 3 3 1 1 4 4 3 8 7 7 9 8 7 5
9 7 7 7 7 4 5 3 3 3 3 5 10 9 8 9 7 6 4 9 8 8 6 6 10 13 9 5 7 6 3 5 3 1 3 4 7 5 5 9 9 9 7
6 6 8 8 8 6 7 5 5 3 5 6 8 10 8 2 7 9 8 11 14 12 21 14 10 6 6 9 2 9 2 6 4 2 2 3 5 7 6 5 7 6 6
8 8 7 8 7 6 6 5 4 5 8 8 9 12 10 9 15 20 13 13 16 14 13 11 5 11 6 6 7 3 3 2 3 5 4 3 3 3 4 5 4 5 5
6 7 6 8 3 2 1 2 3 5 7 7 10 9 7 3 1 3 4 9 12 9 10 6 9 6 11 6 3 3 3 6 4 4 4 3 4 2 3 4 5 4 4
Wind_Direction
123 135 130 128 125 123 121 121 117 117 116 109 106 104 100 96 100 105 103 105 104 105 108 108 104 102 100 98 98 100 102 106 116 121 109 103 105 102 91 63 131 95 91
132 138 132 132 129 126 127 126 123 120 122 119 114 111 110 105 107 106 108 109 111 112 116 115 109 104 103 103 104 105 107 116 116 108 105 106 115 118 111 87 85 98 88
127 134 130 135 134 133 133 130 129 129 131 128 125 122 121 115 115 110 114 113 115 117 121 123 119 111 108 106 107 109 121 105 95 105 120 124 119 133 127 109 97 91 74
131 131 127 137 138 137 138 137 134 132 134 131 130 130 130 128 125 121 123 124 124 126 127 129 129 123 121 119 122 136 150 100 111 144 218 200 163 164 150 114 99 72 39
129 125 133 134 139 138 141 141 140 141 142 142 141 138 136 132 128 125 126 126 129 132 133 134 135 130 132 132 143 182 159 132 104 272 261 261 147 170 163 106 107 66 41
136 125 136 137 141 141 143 144 146 147 147 149 149 149 147 144 138 136 136 136 138 139 136 134 134 136 139 145 168 209 214 261 357 311 285 210 147 170 145 103 76 63 52
132 136 139 140 145 150 148 150 152 151 151 154 154 156 154 151 149 149 145 148 146 144 140 143 145 147 150 160 187 223 246 296 348 287 289 148 142 165 124 101 88 77 70
140 143 146 147 149 153 152 154 157 154 154 157 159 161 159 158 158 156 155 158 155 153 151 153 154 157 166 178 196 228 257 290 341 323 22 119 156 142 119 110 101 92 88
141 142 148 151 152 155 155 155 160 155 155 158 161 163 163 164 167 165 163 166 163 159 159 162 165 167 179 186 206 238 269 286 279 296 289 144 165 137 124 120 110 107 105
152 150 154 154 154 153 163 163 164 160 159 161 166 167 167 172 174 173 167 172 169 165 168 171 174 177 187 195 210 233 262 273 272 216 247 166 162 146 135 129 118 117 118
161 156 159 162 165 158 156 169 168 165 164 167 170 171 168 173 178 180 176 178 177 176 179 179 182 186 194 203 213 225 245 251 233 261 143 155 164 154 141 138 125 129 132
159 157 152 153 160 166 162 158 154 172 165 172 170 174 174 179 183 188 189 185 184 184 186 187 189 194 198 202 218 223 223 242 173 227 157 160 165 160 150 143 133 140 146
353 158 170 160 164 170 170 160 162 164 169 174 180 174 190 196 195 199 193 189 188 193 190 192 190 197 200 209 213 213 226 237 145 194 165 169 173 168 154 146 145 153 160
33 105 154 159 167 186 141 172 172 170 174 180 187 181 183 213 198 199 192 184 185 189 191 192 197 204 213 218 213 214 220 225 169 171 169 174 186 167 156 158 158 163 173
324 135 140 136 141 135 140 173 173 182 182 187 187 186 182 196 209 193 179 184 192 192 197 197 199 202 213 222 219 218 226 229 192 160 168 183 177 174 157 169 172 172 180
295 95 118 93 115 130 165 187 202 197 189 197 191 195 189 193 200 197 186 189 193 198 199 200 199 204 214 215 226 222 225 233 175 155 166 181 176 177 164 174 180 179 184
295 32 169 147 146 152 210 193 198 173 223 205 205 198 197 194 200 191 196 189 193 199 198 202 207 200 208 221 228 237 234 192 155 161 173 176 178 175 162 165 188 186 191
292 237 181 165 84 154 127 276 296 213 207 238 263 217 203 199 203 208 199 201 184 198 192 202 203 194 201 205 211 237 234 216 166 167 172 171 166 175 172 170 178 185 193
213 223 209 190 165 154 151 129 355 320 269 240 212 217 232 212 199 202 207 200 201 180 193 189 196 165 179 197 216 226 234 215 168 167 165 150 152 150 168 175 165 161 156
209 198 202 195 193 174 89 100 340 320 288 268 253 215 187 249 255 204 201 189 188 177 185 176 172 182 173 187 197 217 217 183 150 137 132 130 168 161 145 148 122 150 136
58 76 90 94 83 70 33 15 349 303 289 291 276 251 194 194 208 272 212 195 179 192 186 186 173 179 199 182 133 299 51 154 154 165 169 157 149 146 147 145 146 129 125
77 69 57 48 54 101 121 219 189 233 268 261 281 296 273 197 202 204 193 275 209 170 201 180 185 165 202 179 159 135 169 241 249 177 162 170 151 142 154 152 142 136 142
70 78 86 81 64 31 347 334 322 316 313 303 282 279 268 281 257 211 176 190 303 327 293 211 190 192 197 206 190 153 145 205 146 159 201 137 138 139 139 141 140 141 150
80 76 78 73 69 59 40 21 349 293 290 279 279 281 255 162 325 254 213 212 197 206 217 226 191 175 175 210 166 223 182 152 159 145 65 132 140 129 133 146 138 135 145
32 55 69 66 47 36 36 29 10 332 312 289 294 299 298 222 207 197 191 204 219 210 214 221 168 176 190 184 216 189 179 202 149 137 171 151 58 142 115 138 153 142 150
72 98 107 111 122 101 34 336 332 314 311 315 312 298 293 312 281 7 248 213 237 243 217 236 258 268 201 170 161 237 202 192 192 138 121 114 135 99 120 147 139 148 129